Weather History for KNBC - June, 2013

Change the Weather History Date:

Sunday, June 30, 2013

  Actual Average Record
Temperature  
Mean Temperature 80 °F -  
Max Temperature 87 °F 89 °F 103 °F (1952)
Min Temperature 75 °F 71 °F 42 °F (2002)
Cooling Degree Days 16    
Growing Degree Days 30 (Base 50)    
Moisture  
Dew Point 74 °F    
Average Humidity 81    
Maximum Humidity 91    
Minimum Humidity 67    
Precipitation  
Precipitation 0.08 in - - ()
Sea Level Pressure  
Sea Level Pressure 29.79 in    
Wind  
Wind Speed 6 mph (SSW)    
Max Wind Speed 14 mph    
Max Gust Speed 24 mph    
Visibility 10 miles    
Events Rain , Thunderstorm    
Averages and records for this station are not official NWS values.
T = Trace of Precipitation, MM = Missing Value Source: NWS Daily Summary

Daily Weather History Graph

Daily Weather History Graph

Search for Another Location

Airport or City:

Trip Planner

Search our weather history database for the weather conditions in past years. The results will help you decide how hot, cold, wet, or windy it might be!

Date:

Astronomy

Jun. 30, 2013 Rise Set
Actual Time 6:18 AM EDT 8:34 PM EDT
Civil Twilight 5:50 AM EDT 9:02 PM EDT
Nautical Twilight 5:15 AM EDT 9:37 PM EDT
Astronomical Twilight 4:38 AM EDT 10:14 PM EDT
Moon 1:00 AM EDT (6/30) 2:01 PM EDT (6/30)
Length of Visible Light 15h 12m
Length of Day
14h 15m
Last Quarter, 45% of the Moon is Illuminated
Jun 30
Last Quarter
Jul 8
New
Jul 15
First Quarter
Jul 22
Full
Jul 29
Last Quarter

Hourly Weather History & Observations

Time (EDT) Temp. Heat Index Dew Point Humidity Pressure Visibility Wind Dir Wind Speed Gust Speed Precip Events Conditions
12:09 AM 75.9 °F - 71.1 °F 85% 29.78 in 10.0 mi South 5.8 mph - N/A   Mostly Cloudy
12:13 AM 75.9 °F - 71.1 °F 85% 29.78 in 10.0 mi South 5.8 mph - N/A Thunderstorm Thunderstorm
12:34 AM 75.9 °F - 72.0 °F 87% 29.78 in 10.0 mi Calm Calm - N/A   Clear
12:45 AM 75.9 °F - 72.0 °F 87% 29.78 in 10.0 mi SW 3.5 mph - N/A Thunderstorm Thunderstorm
12:56 AM 75.0 °F - 72.0 °F 90% 29.78 in 10.0 mi Calm Calm - N/A   Clear
1:56 AM 75.9 °F - 72.0 °F 87% 29.76 in 10.0 mi Calm Calm - N/A   Partly Cloudy
2:56 AM 75.9 °F - 73.0 °F 91% 29.75 in 10.0 mi Calm Calm - N/A   Mostly Cloudy
3:17 AM 77.0 °F - 73.9 °F 90% 29.76 in 10.0 mi Calm Calm - N/A   Mostly Cloudy
3:56 AM 79.0 °F - 73.9 °F 84% 29.76 in 10.0 mi SW 11.5 mph - N/A   Overcast
4:11 AM 79.0 °F - 73.0 °F 82% 29.75 in 10.0 mi SW 9.2 mph 18.4 mph N/A   Overcast
4:56 AM 79.0 °F - 73.0 °F 82% 29.75 in 10.0 mi SW 6.9 mph - N/A   Mostly Cloudy
5:22 AM 78.1 °F - 73.0 °F 84% 29.75 in 10.0 mi SW 5.8 mph - N/A   Mostly Cloudy
5:56 AM 78.1 °F - 73.0 °F 84% 29.77 in 10.0 mi SW 6.9 mph - N/A   Mostly Cloudy
6:18 AM 78.1 °F - 73.0 °F 84% 29.77 in 10.0 mi SSW 5.8 mph - N/A   Scattered Clouds
6:56 AM 78.1 °F - 73.0 °F 84% 29.79 in 10.0 mi SW 10.4 mph - N/A   Partly Cloudy
7:15 AM 78.1 °F - 73.0 °F 84% 29.79 in 10.0 mi WSW 10.4 mph - N/A   Mostly Cloudy
7:56 AM 79.0 °F - 73.0 °F 82% 29.80 in 10.0 mi WSW 11.5 mph - N/A   Scattered Clouds
8:56 AM 81.0 °F 85.8 °F 73.0 °F 77% 29.81 in 10.0 mi SW 11.5 mph - N/A   Partly Cloudy
9:38 AM 82.0 °F 87.4 °F 73.0 °F 74% 29.81 in 10.0 mi WSW 11.5 mph - N/A   Mostly Cloudy
9:56 AM 82.0 °F 87.4 °F 73.0 °F 74% 29.82 in 10.0 mi WSW 11.5 mph - N/A   Mostly Cloudy
10:16 AM 82.9 °F 88.8 °F 73.0 °F 72% 29.81 in 10.0 mi WSW 12.7 mph - N/A   Scattered Clouds
10:38 AM 82.9 °F 88.0 °F 72.0 °F 69% 29.81 in 10.0 mi West 12.7 mph - N/A   Mostly Cloudy
10:49 AM 84.9 °F 91.4 °F 73.0 °F 67% 29.80 in 10.0 mi WSW 11.5 mph - N/A   Scattered Clouds
10:56 AM 84.0 °F 90.2 °F 73.0 °F 69% 29.81 in 10.0 mi WSW 12.7 mph - N/A   Partly Cloudy
11:56 AM 84.9 °F 91.4 °F 73.0 °F 67% 29.80 in 10.0 mi Variable 5.8 mph - N/A   Mostly Cloudy
12:03 PM 84.0 °F 89.6 °F 72.0 °F 67% 29.80 in 10.0 mi WNW 3.5 mph - N/A   Overcast
12:14 PM 81.0 °F 86.2 °F 73.9 °F 79% 29.81 in 1.8 mi North - - 0.04 in Rain Light Rain
12:28 PM 80.1 °F 85.1 °F 75.0 °F 85% 29.81 in 10.0 mi SSW 5.8 mph - 0.04 in   Mostly Cloudy
12:38 PM 81.0 °F 86.7 °F 75.0 °F 82% 29.80 in 10.0 mi South 4.6 mph - 0.04 in   Scattered Clouds
12:56 PM 82.9 °F 90.8 °F 75.9 °F 79% 29.80 in 10.0 mi South 5.8 mph - 0.04 in   Clear
1:45 PM 84.9 °F 93.3 °F 75.0 °F 72% 29.79 in 10.0 mi SSE 8.1 mph - N/A Thunderstorm Thunderstorm
1:56 PM 86.0 °F 96.0 °F 75.9 °F 72% 29.79 in 10.0 mi South 8.1 mph - N/A Thunderstorm Thunderstorm
2:06 PM 84.0 °F 92.6 °F 75.9 °F 76% 29.78 in 10.0 mi SSE 8.1 mph - N/A Thunderstorm Scattered Clouds
2:27 PM 84.0 °F 92.6 °F 75.9 °F 76% 29.77 in 10.0 mi ESE 8.1 mph - N/A   Overcast
2:56 PM 84.0 °F 93.7 °F 77.0 °F 79% 29.76 in 10.0 mi South 11.5 mph 18.4 mph N/A Thunderstorm Mostly Cloudy
3:06 PM 82.9 °F 91.8 °F 77.0 °F 82% 29.76 in 4.0 mi South 13.8 mph 24.2 mph 0.01 in Rain , Thunderstorm Light Rain
3:16 PM 82.9 °F 91.8 °F 77.0 °F 82% 29.76 in 10.0 mi South 10.4 mph 20.7 mph 0.01 in   Mostly Cloudy
3:24 PM 82.9 °F 91.8 °F 77.0 °F 82% 29.77 in 8.0 mi South 9.2 mph 19.6 mph 0.01 in Rain , Thunderstorm Light Rain
3:33 PM 82.9 °F 91.8 °F 77.0 °F 82% 29.77 in 10.0 mi South 9.2 mph 17.3 mph 0.01 in Thunderstorm Overcast
3:44 PM 84.0 °F 93.7 °F 77.0 °F 79% 29.77 in 10.0 mi South 10.4 mph 19.6 mph 0.01 in   Overcast
3:56 PM 84.0 °F 92.6 °F 75.9 °F 76% 29.78 in 10.0 mi South 9.2 mph - 0.01 in   Mostly Cloudy
4:19 PM 82.9 °F 90.2 °F 75.0 °F 77% 29.79 in 10.0 mi South 10.4 mph 20.7 mph N/A Thunderstorm Thunderstorm
4:31 PM 82.9 °F 90.2 °F 75.0 °F 77% 29.80 in 10.0 mi South 10.4 mph 20.7 mph N/A Thunderstorm Thunderstorm
4:42 PM 82.0 °F 88.6 °F 75.0 °F 79% 29.80 in 10.0 mi South 11.5 mph 20.7 mph 0.00 in Rain Light Rain
4:56 PM 81.0 °F 87.3 °F 75.9 °F 85% 29.80 in 5.0 mi South 9.2 mph 19.6 mph 0.01 in Rain Light Rain
5:26 PM 80.1 °F 85.8 °F 77.0 °F 90% 29.80 in 9.0 mi South 5.8 mph - 0.02 in   Overcast
5:52 PM 80.6 °F 86.2 °F 75.2 °F 84% 29.81 in 10.0 mi SSW 5.8 mph - 0.02 in   Mostly Cloudy
5:56 PM 81.0 °F 87.3 °F 75.9 °F 85% 29.81 in 10.0 mi SSW 5.8 mph - 0.02 in   Mostly Cloudy
6:56 PM 79.0 °F - 72.0 °F 79% 29.82 in 10.0 mi SW 6.9 mph - N/A   Mostly Cloudy
7:34 PM 75.9 °F - 71.1 °F 85% 29.83 in 10.0 mi North 10.4 mph - N/A   Overcast
7:56 PM 75.0 °F - 70.0 °F 84% 29.83 in 10.0 mi NE 8.1 mph - 0.00 in Rain Light Rain
8:56 PM 75.0 °F - 71.1 °F 87% 29.83 in 10.0 mi Calm Calm - 0.00 in   Mostly Cloudy
9:37 PM 75.0 °F - 71.1 °F 87% 29.84 in 10.0 mi Calm Calm - N/A   Mostly Cloudy
9:47 PM 75.0 °F - 71.1 °F 87% 29.84 in 10.0 mi Calm Calm - N/A   Mostly Cloudy
9:56 PM 75.9 °F - 71.1 °F 85% 29.84 in 10.0 mi Calm Calm - N/A   Mostly Cloudy
10:56 PM 79.0 °F - 72.0 °F 79% 29.85 in 10.0 mi SSW 5.8 mph - N/A   Mostly Cloudy
11:43 PM 79.0 °F - 73.0 °F 82% 29.85 in 10.0 mi South 10.4 mph 19.6 mph N/A   Mostly Cloudy
11:56 PM 79.0 °F - 73.0 °F 82% 29.85 in 10.0 mi South 6.9 mph - N/A   Mostly Cloudy